• In India
  • List of Countries
  • For 7 days
  • Water Temperature
  • Satellite Maps
  • Weather Map
  • Weather Widgets
  • user-avatar
    Login

    Hourly Weather Canberra

    Today, 23 October, Monday

    Time Temperature Precipitation Wind Pressure Humidity
    00:00 +7°C° 0 mm 1 mps 709 mmHg 95%
    01:00 +7°C° 0 mm 1 mps 709 mmHg 95%
    02:00 +7°C° 0 mm 1 mps 709 mmHg 95%
    03:00 +6°C° 0 mm 1 mps 709 mmHg 95%
    04:00 +6°C° 0 mm 1 mps 708 mmHg 94%
    05:00 +7°C° 0 mm 1 mps 709 mmHg 90%
    06:00 +9°C° 0 mm 1 mps 709 mmHg 86%
    07:00 +9°C° 0 mm 0 mps 710 mmHg 82%
    08:00 +14°C° 0 mm 1 mps 710 mmHg 68%
    09:00 +18°C° 0 mm 1 mps 710 mmHg 54%
    10:00 +19°C° 0 mm 0 mps 711 mmHg 40%
    11:00 +22°C° 0 mm 1 mps 711 mmHg 37%
    12:00 +23°C° 0 mm 1 mps 710 mmHg 34%
    13:00 +24°C° 0 mm 1 mps 710 mmHg 31%
    14:00 +23°C° 0 mm 2 mps 710 mmHg 33%
    15:00 +23°C° 0 mm 2 mps 710 mmHg 35%
    16:00 +21°C° 0 mm 2 mps 709 mmHg 39%
    17:00 +18°C° 0 mm 2 mps 709 mmHg 50%
    18:00 +16°C° 0 mm 1 mps 709 mmHg 61%
    19:00 +13°C° 0 mm 1 mps 709 mmHg 71%
    20:00 +12°C° 0 mm 1 mps 709 mmHg 76%
    21:00 +11°C° 0 mm 1 mps 710 mmHg 80%
    22:00 +10°C° 0 mm 1 mps 710 mmHg 84%
    23:00 +10°C° 0 mm 1 mps 710 mmHg 85%

    Tomorrow, 24 October, Tuesday

    Time Temperature Precipitation Wind Pressure Humidity
    00:00 +9°C° 0 mm 1 mps 710 mmHg 86%
    01:00 +9°C° 0 mm 1 mps 710 mmHg 86%
    02:00 +9°C° 0 mm 1 mps 710 mmHg 86%
    03:00 +9°C° 0 mm 1 mps 709 mmHg 86%
    04:00 +8°C° 0 mm 1 mps 709 mmHg 86%
    05:00 +10°C° 0 mm 1 mps 710 mmHg 78%
    06:00 +12°C° 0 mm 1 mps 710 mmHg 71%
    07:00 +14°C° 0 mm 2 mps 710 mmHg 63%
    08:00 +16°C° 0 mm 2 mps 710 mmHg 56%
    09:00 +19°C° 0 mm 3 mps 711 mmHg 49%
    10:00 +21°C° 0 mm 4 mps 711 mmHg 42%
    11:00 +22°C° 0 mm 4 mps 710 mmHg 40%
    12:00 +23°C° 0 mm 4 mps 710 mmHg 39%
    13:00 +23°C° 0 mm 4 mps 710 mmHg 37%
    14:00 +23°C° 0 mm 4 mps 709 mmHg 38%
    15:00 +23°C° 0 mm 4 mps 709 mmHg 39%
    16:00 +24°C° 0 mm 3 mps 708 mmHg 40%
    17:00 +21°C° 0 mm 2 mps 708 mmHg 49%
    18:00 +18°C° 0 mm 2 mps 708 mmHg 57%
    19:00 +15°C° 0 mm 1 mps 708 mmHg 66%
    20:00 +15°C° 0 mm 1 mps 708 mmHg 68%
    21:00 +14°C° 0 mm 1 mps 708 mmHg 69%
    22:00 +14°C° 0 mm 1 mps 708 mmHg 70%
    23:00 +12°C° 0 mm 0 mps 708 mmHg 72%

    Day after tomorrow, 25 October, Wednesday

    Time Temperature Precipitation Wind Pressure Humidity
    00:00 +12°C° 0 mm 0 mps 707 mmHg 73%
    01:00 +12°C° 0 mm 0 mps 707 mmHg 75%
    02:00 +12°C° 0 mm 0 mps 707 mmHg 75%
    03:00 +12°C° 0 mm 0 mps 706 mmHg 76%
    04:00 +13°C° 0 mm 1 mps 706 mmHg 77%
    05:00 +14°C° 0 mm 1 mps 706 mmHg 72%
    06:00 +15°C° 0 mm 1 mps 706 mmHg 68%
    07:00 +16°C° 0 mm 1 mps 707 mmHg 64%
    08:00 +18°C° 0 mm 3 mps 707 mmHg 55%
    09:00 +21°C° 0 mm 4 mps 707 mmHg 46%
    10:00 +23°C° 0 mm 5 mps 707 mmHg 38%
    11:00 +23°C° 0 mm 5 mps 706 mmHg 36%
    12:00 +25°C° 0 mm 5 mps 706 mmHg 35%
    13:00 +26°C° 0 mm 4 mps 706 mmHg 34%
    14:00 +22°C° 0.7 mm 4 mps 705 mmHg 50%
    15:00 +20°C° 0.7 mm 3 mps 704 mmHg 67%
    16:00 +18°C° 0.7 mm 2 mps 703 mmHg 83%
    17:00 +17°C° 0.1 mm 2 mps 703 mmHg 84%
    18:00 +16°C° 0.1 mm 2 mps 702 mmHg 85%
    19:00 +15°C° 0.1 mm 1 mps 702 mmHg 86%
    20:00 +15°C° 0.1 mm 2 mps 702 mmHg 89%
    21:00 +14°C° 0.1 mm 2 mps 702 mmHg 91%
    22:00 +13°C° 0.1 mm 3 mps 702 mmHg 93%
    23:00 +13°C° 0.1 mm 3 mps 702 mmHg 94%

    26 October, Thursday

    Time Temperature Precipitation Wind Pressure Humidity
    00:00 +14°C° 0.1 mm 2 mps 701 mmHg 96%
    01:00 +14°C° 0.1 mm 2 mps 701 mmHg 97%
    02:00 +14°C° 0 mm 2 mps 701 mmHg 97%
    03:00 +14°C° 0 mm 2 mps 701 mmHg 97%
    04:00 +13°C° 0 mm 1 mps 701 mmHg 97%
    05:00 +14°C° 0 mm 1 mps 701 mmHg 95%
    06:00 +15°C° 0 mm 1 mps 701 mmHg 92%
    07:00 +15°C° 0 mm 1 mps 702 mmHg 90%
    08:00 +16°C° 0.2 mm 1 mps 702 mmHg 85%
    09:00 +18°C° 0.2 mm 1 mps 703 mmHg 80%
    10:00 +20°C° 0.2 mm 1 mps 703 mmHg 75%
    11:00 +20°C° 1.8 mm 1 mps 703 mmHg 77%
    12:00 +19°C° 1.8 mm 1 mps 702 mmHg 80%
    13:00 +18°C° 1.8 mm 2 mps 702 mmHg 82%
    14:00 +17°C° 2.5 mm 2 mps 702 mmHg 85%
    15:00 +16°C° 2.5 mm 2 mps 702 mmHg 88%
    16:00 +14°C° 2.5 mm 3 mps 702 mmHg 91%
    17:00 +14°C° 0.8 mm 3 mps 703 mmHg 93%
    18:00 +14°C° 0.8 mm 2 mps 704 mmHg 94%
    19:00 +13°C° 0.8 mm 2 mps 704 mmHg 96%
    20:00 +12°C° 0 mm 2 mps 705 mmHg 96%
    21:00 +12°C° 0 mm 2 mps 705 mmHg 97%
    22:00 +10°C° 0 mm 2 mps 706 mmHg 97%
    23:00 +10°C° 0 mm 2 mps 706 mmHg 97%

    27 October, Friday

    Time Temperature Precipitation Wind Pressure Humidity
    00:00 +10°C° 0 mm 2 mps 706 mmHg 97%
    01:00 +10°C° 0 mm 2 mps 706 mmHg 97%
    02:00 +10°C° 0 mm 1 mps 706 mmHg 97%
    03:00 +10°C° 0 mm 1 mps 706 mmHg 97%
    04:00 +10°C° 0 mm 1 mps 706 mmHg 97%
    05:00 +11°C° 0 mm 1 mps 706 mmHg 96%
    06:00 +12°C° 0 mm 2 mps 707 mmHg 94%
    07:00 +13°C° 0 mm 2 mps 707 mmHg 92%
    08:00 +14°C° 0 mm 2 mps 708 mmHg 85%
    09:00 +16°C° 0 mm 2 mps 708 mmHg 78%
    10:00 +17°C° 0 mm 3 mps 708 mmHg 71%
    11:00 +18°C° 0 mm 3 mps 707 mmHg 66%
    12:00 +19°C° 0 mm 3 mps 707 mmHg 61%
    13:00 +21°C° 0 mm 3 mps 707 mmHg 56%
    14:00 +21°C° 0 mm 3 mps 706 mmHg 55%
    15:00 +21°C° 0 mm 2 mps 706 mmHg 55%
    16:00 +23°C° 0 mm 2 mps 705 mmHg 54%
    17:00 +20°C° 0 mm 2 mps 705 mmHg 62%
    18:00 +18°C° 0 mm 2 mps 705 mmHg 71%
    19:00 +16°C° 0 mm 2 mps 705 mmHg 79%
    20:00 +14°C° 0 mm 2 mps 705 mmHg 84%
    21:00 +13°C° 0 mm 1 mps 706 mmHg 89%
    22:00 +12°C° 0 mm 1 mps 706 mmHg 93%
    23:00 +11°C° 0 mm 1 mps 706 mmHg 93%

    28 October, Saturday

    Time Temperature Precipitation Wind Pressure Humidity
    00:00 +11°C° 0 mm 1 mps 705 mmHg 93%
    01:00 +10°C° 0 mm 1 mps 705 mmHg 93%
    02:00 +10°C° 0 mm 1 mps 704 mmHg 93%
    03:00 +10°C° 0 mm 1 mps 704 mmHg 92%
    04:00 +10°C° 0 mm 1 mps 704 mmHg 92%
    05:00 +12°C° 0 mm 1 mps 704 mmHg 86%
    06:00 +13°C° 0 mm 2 mps 705 mmHg 80%
    07:00 +15°C° 0 mm 2 mps 705 mmHg 74%
    08:00 +17°C° 0 mm 2 mps 706 mmHg 66%
    09:00 +19°C° 0 mm 3 mps 706 mmHg 58%
    10:00 +21°C° 0 mm 3 mps 706 mmHg 51%
    11:00 +22°C° 0 mm 3 mps 706 mmHg 50%
    12:00 +22°C° 0 mm 3 mps 705 mmHg 49%
    13:00 +23°C° 0 mm 4 mps 705 mmHg 48%
    14:00 +24°C° 0 mm 3 mps 705 mmHg 47%
    15:00 +25°C° 0 mm 3 mps 705 mmHg 46%
    16:00 +25°C° 0 mm 3 mps 705 mmHg 45%
    17:00 +22°C° 0 mm 3 mps 705 mmHg 50%
    18:00 +21°C° 0 mm 2 mps 705 mmHg 55%
    19:00 +19°C° 0 mm 2 mps 704 mmHg 60%
    20:00 +18°C° 0 mm 2 mps 704 mmHg 60%
    21:00 +17°C° 0 mm 2 mps 704 mmHg 59%
    22:00 +16°C° 0 mm 2 mps 704 mmHg 59%
    23:00 +16°C° 0.2 mm 2 mps 704 mmHg 65%

    29 October, Sunday

    Time Temperature Precipitation Wind Pressure Humidity
    00:00 +16°C° 0.2 mm 2 mps 704 mmHg 72%
    01:00 +16°C° 0.2 mm 2 mps 704 mmHg 78%
    02:00 +15°C° 0.1 mm 2 mps 704 mmHg 82%
    03:00 +14°C° 0.1 mm 2 mps 704 mmHg 87%
    04:00 +14°C° 0.1 mm 2 mps 704 mmHg 92%
    05:00 +15°C° 0 mm 2 mps 705 mmHg 89%
    06:00 +16°C° 0 mm 3 mps 706 mmHg 87%
    07:00 +17°C° 0 mm 3 mps 706 mmHg 85%
    08:00 +19°C° 0 mm 3 mps 706 mmHg 71%
    09:00 +21°C° 0 mm 3 mps 707 mmHg 57%
    10:00 +24°C° 0 mm 3 mps 707 mmHg 43%
    11:00 +25°C° 0 mm 3 mps 706 mmHg 39%
    12:00 +26°C° 0 mm 4 mps 706 mmHg 35%
    13:00 +27°C° 0 mm 4 mps 706 mmHg 30%
    14:00 +27°C° 0 mm 4 mps 705 mmHg 32%
    15:00 +27°C° 0 mm 4 mps 705 mmHg 34%
    16:00 +26°C° 0 mm 4 mps 704 mmHg 35%
    17:00 +24°C° 0 mm 3 mps 704 mmHg 41%
    18:00 +21°C° 0 mm 2 mps 704 mmHg 48%
    19:00 +18°C° 0 mm 2 mps 704 mmHg 54%
    20:00 +18°C° 0 mm 2 mps 704 mmHg 51%
    21:00 +17°C° 0 mm 3 mps 704 mmHg 47%
    22:00 +17°C° 0 mm 3 mps 704 mmHg 44%
    23:00 +16°C° 0 mm 3 mps 703 mmHg 42%
    Show more